Demopolis Municipal Airport, AL

2:00 PM CDT on September 15, 2019 (GMT -0500)
Demopolis Municipal Airport

Weather History for KDYA - August, 2019

Change the Weather History Date:

Thursday, August 22, 2019

  Actual Average (WUND) Record (WUND)
Temperature  
Mean Temperature 82 °F -  
Max Temperature 93 °F - - (-1)
Min Temperature 71 °F - - (-1)
Cooling Degree Days 17    
Growing Degree Days 32 (Base 50)    
Moisture  
Dew Point 72 °F    
Average Humidity 77    
Maximum Humidity 100    
Minimum Humidity 43    
Precipitation  
Precipitation 0.00 in - - ()
Sea Level Pressure  
Sea Level Pressure 30.02 in    
Wind  
Wind Speed 2 mph ()    
Max Wind Speed 9 mph    
Max Gust Speed -    
Visibility 8.8 miles    
Events      
Averages and records for this station are not official NWS values.
T = Trace of Precipitation, MM = Missing Value Source: Averaged Metar Reports

Daily Weather History Graph

Daily Weather History Graph

Search for Another Location

Airport or City:

Astronomy

Aug. 22, 2019 Rise Set
Actual Time 6:20 AM CDT 7:28 PM CDT
Civil Twilight 5:54 AM CDT 7:54 PM CDT
Nautical Twilight 5:24 AM CDT 8:24 PM CDT
Astronomical Twilight 4:52 AM CDT 8:55 PM CDT
Moon 11:41 PM CDT (8/22) 12:33 PM CDT (8/22)
Length of Visible Light 13h 59m
Length of Day
13h 08m
Waning Gibbous, 59% of the Moon is Illuminated
Aug 22
Waning Gibbous
Aug 23
Last Quarter
Aug 30
New
Sep 5
First Quarter
Sep 13
Full

Hourly Weather History & Observations

Time (CDT) Temp. Heat Index Dew Point Humidity Pressure Visibility Wind Dir Wind Speed Gust Speed Precip Events Conditions
12:15 AM 72.5 °F - 72.1 °F 99% 30.05 in 10.0 mi Calm Calm - N/A   Clear
12:35 AM 72.5 °F - 72.5 °F 100% 30.04 in 10.0 mi SE 3.5 mph - N/A   Clear
12:55 AM 72.9 °F - 72.9 °F 100% 30.04 in 10.0 mi Calm Calm - N/A   Clear
1:35 AM 72.5 °F - 72.5 °F 100% 30.02 in 10.0 mi SE 3.5 mph - N/A   Clear
1:55 AM 72.9 °F - 72.7 °F 99% 30.02 in 10.0 mi SE 4.6 mph - N/A   Clear
2:15 AM 73.0 °F - 72.1 °F 97% 30.02 in 10.0 mi SE 3.5 mph - N/A   Clear
2:35 AM 72.7 °F - 71.8 °F 97% 30.02 in 10.0 mi SSE 3.5 mph - N/A   Clear
2:55 AM 72.5 °F - 71.8 °F 98% 30.02 in 10.0 mi Calm Calm - N/A   Clear
3:15 AM 73.0 °F - 72.1 °F 97% 30.02 in 10.0 mi Calm Calm - N/A   Clear
3:35 AM 72.5 °F - 71.6 °F 97% 30.02 in 10.0 mi Calm Calm - N/A   Clear
3:55 AM 72.1 °F - 71.6 °F 98% 30.02 in 10.0 mi Calm Calm - N/A   Clear
4:15 AM 72.1 °F - 72.0 °F 99% 30.02 in 10.0 mi Calm Calm - N/A   Clear
4:35 AM 72.3 °F - 72.1 °F 99% 30.02 in 10.0 mi Calm Calm - N/A   Clear
4:55 AM 71.2 °F - 71.2 °F 100% 30.03 in 10.0 mi Calm Calm - N/A   Clear
5:15 AM - - - N/A% 30.04 in 7.0 mi Calm Calm - N/A   Clear
5:35 AM - - - N/A% 30.04 in 7.0 mi Calm Calm - N/A   Clear
5:55 AM - - - N/A% 30.05 in 7.0 mi Calm Calm - N/A   Clear
6:15 AM - - - N/A% 30.06 in 7.0 mi Calm Calm - N/A   Mostly Cloudy
6:35 AM - - - N/A% 30.06 in 7.0 mi Calm Calm - N/A   Mostly Cloudy
6:55 AM - - - N/A% 30.07 in 10.0 mi Calm Calm - N/A   Scattered Clouds
7:15 AM - - - N/A% 30.07 in 10.0 mi Calm Calm - N/A   Scattered Clouds
7:35 AM - - - N/A% 30.07 in 10.0 mi Calm Calm - N/A   Clear
7:55 AM - - - N/A% 30.07 in 10.0 mi Calm Calm - N/A   Clear
8:35 AM 75.4 °F - 74.1 °F 96% 30.07 in 10.0 mi Calm Calm - N/A   Clear
8:55 AM 76.8 °F - 73.9 °F 91% 30.07 in 10.0 mi SE 3.5 mph - N/A   Clear
9:15 AM 77.7 °F - 73.9 °F 88% 30.07 in 10.0 mi SE 3.5 mph - N/A   Clear
9:35 AM 79.0 °F - 73.8 °F 84% 30.06 in 10.0 mi Calm Calm - N/A   Clear
9:55 AM 80.8 °F 85.8 °F 73.8 °F 79% 30.07 in 10.0 mi Calm Calm - N/A   Clear
10:15 AM 81.5 °F 86.7 °F 73.4 °F 76% 30.06 in 10.0 mi South 4.6 mph - N/A   Clear
10:35 AM 83.1 °F 89.2 °F 73.4 °F 72% 30.06 in 10.0 mi SSE 4.6 mph - N/A   Clear
10:55 AM 83.8 °F 90.1 °F 73.2 °F 70% 30.06 in 10.0 mi South 5.8 mph - N/A   Clear
11:15 AM 83.3 °F 89.3 °F 73.2 °F 71% 30.06 in 7.0 mi SSE 5.8 mph - N/A   Clear
11:35 AM 84.0 °F 90.8 °F 73.6 °F 71% 30.05 in 10.0 mi SE 4.6 mph - N/A   Scattered Clouds
11:55 AM 85.5 °F 92.2 °F 72.9 °F 66% 30.05 in 7.0 mi SSE 5.8 mph - N/A   Scattered Clouds
12:15 PM 88.0 °F 94.7 °F 72.1 °F 59% 30.04 in 7.0 mi SE 6.9 mph - N/A   Scattered Clouds
12:35 PM 88.9 °F 94.2 °F 70.3 °F 54% 30.04 in 7.0 mi SE 8.1 mph - N/A   Scattered Clouds
12:55 PM 88.3 °F 93.6 °F 70.2 °F 55% 30.03 in 7.0 mi SSE 4.6 mph - N/A   Scattered Clouds
1:15 PM 89.4 °F 94.0 °F 69.3 °F 51% 30.02 in 10.0 mi SE 5.8 mph - N/A   Mostly Cloudy
1:35 PM 90.7 °F 95.9 °F 70.0 °F 50% 30.01 in 7.0 mi SE 6.9 mph - N/A   Mostly Cloudy
1:55 PM 92.1 °F 97.2 °F 69.3 °F 47% 30.00 in 7.0 mi South 6.9 mph - N/A   Scattered Clouds
2:15 PM 90.5 °F 95.1 °F 68.7 °F 49% 30.00 in 7.0 mi South 5.8 mph - N/A   Scattered Clouds
2:35 PM 92.7 °F 97.2 °F 68.5 °F 45% 29.99 in 7.0 mi SSE 8.1 mph - N/A   Scattered Clouds
2:55 PM 93.4 °F 97.6 °F 67.8 °F 43% 29.98 in 7.0 mi South 6.9 mph - N/A   Clear
3:15 PM 91.8 °F 95.1 °F 67.3 °F 44% 29.97 in 7.0 mi SE 9.2 mph - N/A   Scattered Clouds
3:35 PM 91.6 °F 95.7 °F 67.8 °F 46% 29.96 in 7.0 mi SSW 5.8 mph - N/A   Scattered Clouds
3:55 PM 91.6 °F 95.2 °F 67.6 °F 45% 29.96 in 7.0 mi SSW 4.6 mph - N/A   Clear
4:15 PM 91.8 °F 95.1 °F 67.1 °F 44% 29.96 in 7.0 mi South 6.9 mph - N/A   Mostly Cloudy
4:35 PM 90.5 °F 95.5 °F 69.3 °F 50% 29.96 in 5.0 mi West 3.5 mph - N/A   Haze
4:55 PM 89.8 °F 94.2 °F 68.9 °F 50% 29.96 in 7.0 mi West 4.6 mph - N/A   Mostly Cloudy
5:15 PM 87.3 °F 94.0 °F 72.1 °F 61% 29.95 in 7.0 mi NW 3.5 mph - N/A   Scattered Clouds
5:35 PM 85.6 °F 93.4 °F 73.9 °F 68% 29.95 in 5.0 mi WNW 9.2 mph - N/A   Haze
5:55 PM 83.3 °F 89.6 °F 73.6 °F 72% 29.94 in 7.0 mi NW 5.8 mph - N/A   Clear
6:15 PM 82.2 °F 88.3 °F 74.1 °F 76% 29.95 in 7.0 mi NNW 4.6 mph - N/A   Clear
6:35 PM 81.9 °F 87.5 °F 73.8 °F 76% 29.96 in 10.0 mi NW 3.5 mph - N/A   Clear
7:15 PM 81.5 °F 86.9 °F 73.6 °F 77% 29.97 in 10.0 mi Calm Calm - N/A   Clear
7:35 PM 80.8 °F 85.4 °F 73.0 °F 77% 29.96 in 10.0 mi Calm Calm - N/A   Clear
7:55 PM 80.1 °F 84.2 °F 72.9 °F 79% 29.96 in 7.0 mi Calm Calm - N/A   Clear
8:15 PM 79.0 °F - 73.0 °F 82% 29.96 in 10.0 mi Calm Calm - N/A   Clear
8:35 PM 77.7 °F - 72.7 °F 84% 29.97 in 10.0 mi Calm Calm - N/A   Clear
8:55 PM 77.9 °F - 73.0 °F 85% 29.98 in 10.0 mi Calm Calm - N/A   Clear
9:15 PM 77.0 °F - 72.9 °F 87% 29.99 in 10.0 mi ESE 3.5 mph - N/A   Clear
9:35 PM 77.0 °F - 73.4 °F 89% 30.00 in 10.0 mi Calm Calm - N/A   Scattered Clouds
9:55 PM 77.4 °F - 73.8 °F 89% 30.00 in 10.0 mi SE 4.6 mph - N/A   Scattered Clouds
10:15 PM 78.4 °F - 73.9 °F 86% 30.01 in 10.0 mi South 3.5 mph - N/A   Scattered Clouds
10:35 PM 77.9 °F - 73.8 °F 87% 30.01 in 10.0 mi Calm Calm - N/A   Scattered Clouds
10:55 PM 77.9 °F - 73.9 °F 88% 30.01 in 10.0 mi Calm Calm - N/A   Clear
11:15 PM 77.2 °F - 73.9 °F 90% 30.01 in 10.0 mi Calm Calm - N/A   Clear
11:35 PM 77.0 °F - 73.9 °F 90% 30.01 in 10.0 mi Calm Calm - N/A   Clear
11:55 PM 77.0 °F - 73.8 °F 90% 30.01 in 10.0 mi Calm Calm - N/A   Clear